| time (UTC) | temp F | wind direction | speed MPH | gust MPH | rain 1hr in | rain 24hr in | rain mn in | humidity % | barometer mb |
| 20260901200105 | 91 | 254 | 1.0 | 8.0 | 0.00 | 0.01 | 0.01 | 68 | 1012.1 |
| 20260901194602 | 91 | 269 | 3.0 | 9.0 | 0.00 | 0.01 | 0.01 | 68 | 1012.2 |
| 20260901193101 | 90 | 264 | 0.0 | 7.0 | 0.00 | 0.01 | 0.01 | 70 | 1012.3 |
| 20260901191553 | 90 | 287 | 0.0 | 8.0 | 0.00 | 0.01 | 0.01 | 70 | 1012.4 |
| 20260901184551 | 92 | 224 | 1.0 | 7.0 | 0.00 | 0.01 | 0.01 | 66 | 1012.2 |
| 20260901183051 | 91 | 300 | 0.0 | 10.0 | 0.00 | 0.01 | 0.01 | 67 | 1012.0 |
| 20260901181550 | 92 | 261 | 0.0 | 6.0 | 0.00 | 0.01 | 0.01 | 65 | 1011.9 |
| 20260901180047 | 92 | 230 | 0.0 | 4.0 | 0.00 | 0.01 | 0.01 | 65 | 1012.0 |
| 20260901174558 | 91 | 217 | 0.0 | 4.0 | 0.00 | 0.01 | 0.01 | 67 | 1012.1 |
| 20260901173043 | 91 | 281 | 1.0 | 6.0 | 0.00 | 0.01 | 0.01 | 67 | 1012.3 |
| 20260901171540 | 90 | 241 | 0.0 | 10.0 | 0.00 | 0.01 | 0.01 | 70 | 1012.4 |
| 20260901170112 | 89 | 225 | 0.0 | 8.0 | 0.00 | 0.01 | 0.01 | 71 | 1012.7 |
| 20260901164536 | 89 | 202 | 0.0 | 4.0 | 0.00 | 0.01 | 0.01 | 73 | 1013.1 |
| 20260901163034 | 87 | 199 | 1.0 | 6.0 | 0.00 | 0.01 | 0.01 | 72 | 1013.2 |
| 20260901161530 | 87 | 208 | 0.0 | 0.0 | 0.00 | 0.01 | 0.01 | 75 | 1013.2 |
| 20260901160034 | 86 | 225 | 0.0 | 0.0 | 0.00 | 0.01 | 0.01 | 75 | 1013.3 |
| 20260901154525 | 84 | 227 | 0.0 | 0.0 | 0.00 | 0.01 | 0.01 | 77 | 1013.4 |
| 20260901153022 | 83 | 273 | 0.0 | 0.0 | 0.00 | 0.01 | 0.01 | 79 | 1013.5 |
| 20260901151518 | 82 | 226 | 0.0 | 0.0 | 0.00 | 0.01 | 0.01 | 80 | 1013.7 |
| 20260901150017 | 82 | 273 | 0.0 | 0.0 | 0.00 | 0.01 | 0.01 | 79 | 1013.8 |
| 20260901144514 | 80 | 252 | 0.0 | 0.0 | 0.00 | 0.01 | 0.01 | 81 | 1013.9 |
| 20260901143016 | 80 | 251 | 0.0 | 0.0 | 0.00 | 0.01 | 0.01 | 81 | 1013.9 |
| 20260901141512 | 80 | 248 | 0.0 | 0.0 | 0.00 | 0.01 | 0.01 | 82 | 1013.6 |
| 20260901140011 | 80 | 248 | 0.0 | 0.0 | 0.00 | 0.01 | 0.01 | 81 | 1013.5 |
| 20260901134511 | 80 | 248 | 0.0 | 0.0 | 0.01 | 0.01 | 0.01 | 82 | 1013.3 |
| 20260901133008 | 80 | 248 | 0.0 | 0.0 | 0.01 | 0.01 | 0.01 | 83 | 1013.3 |
| 20260901131512 | 78 | 248 | 0.0 | 0.0 | 0.01 | 0.01 | 0.01 | 85 | 1013.3 |
| 20260901130005 | 78 | 261 | 0.0 | 0.0 | 0.01 | 0.01 | 0.01 | 86 | 1013.4 |
| 20260901124505 | 77 | 217 | 0.0 | 0.0 | 0.00 | 0.00 | 0.00 | 87 | 1013.5 |
| 20260901123004 | 77 | 217 | 0.0 | 0.0 | 0.00 | 0.00 | 0.00 | 88 | 1013.7 |
| 20260901121501 | 76 | 217 | 0.0 | 0.0 | 0.00 | 0.00 | 0.00 | 88 | 1013.6 |
| 20260901120001 | 76 | 217 | 0.0 | 0.0 | 0.00 | 0.00 | 0.00 | 89 | 1013.5 |
| 20260901114600 | 76 | 217 | 0.0 | 0.0 | 0.00 | 0.00 | 0.00 | 90 | 1013.3 |
| 20260901113107 | 75 | 217 | 0.0 | 0.0 | 0.00 | 0.00 | 0.00 | 90 | 1013.4 |
| 20260901111606 | 75 | 217 | 0.0 | 0.0 | 0.00 | 0.00 | 0.00 | 90 | 1013.2 |
| 20260901104557 | 75 | 217 | 0.0 | 0.0 | 0.00 | 0.00 | 0.00 | 89 | 1013.1 |
| 20260901103053 | 75 | 217 | 0.0 | 0.0 | 0.00 | 0.00 | 0.00 | 89 | 1012.9 |
| 20260901101605 | 76 | 217 | 0.0 | 0.0 | 0.00 | 0.00 | 0.00 | 89 | 1013.0 |
| 20260901100106 | 76 | 217 | 0.0 | 0.0 | 0.00 | 0.00 | 0.00 | 88 | 1012.9 |
| 20260901094555 | 76 | 217 | 0.0 | 0.0 | 0.00 | 0.00 | 0.00 | 88 | 1012.9 |
| 20260901093051 | 76 | 217 | 0.0 | 0.0 | 0.00 | 0.00 | 0.00 | 88 | 1012.8 |
| 20260901091550 | 77 | 217 | 0.0 | 0.0 | 0.00 | 0.00 | 0.00 | 88 | 1012.7 |
| 20260901090049 | 77 | 217 | 0.0 | 0.0 | 0.00 | 0.00 | 0.00 | 87 | 1012.6 |
| 20260901084605 | 77 | 217 | 0.0 | 0.0 | 0.00 | 0.00 | 0.00 | 88 | 1012.5 |
| 20260901083050 | 77 | 217 | 0.0 | 0.0 | 0.00 | 0.00 | 0.00 | 88 | 1012.5 |
| 20260901081545 | 77 | 217 | 0.0 | 0.0 | 0.00 | 0.00 | 0.00 | 88 | 1012.4 |
| 20260901080044 | 77 | 217 | 0.0 | 0.0 | 0.00 | 0.00 | 0.00 | 88 | 1012.4 |
| 20260901074543 | 77 | 217 | 0.0 | 0.0 | 0.00 | 0.00 | 0.00 | 88 | 1012.4 |
| 20260901073042 | 77 | 217 | 0.0 | 0.0 | 0.00 | 0.00 | 0.00 | 87 | 1012.5 |
| 20260901071541 | 77 | 217 | 0.0 | 2.0 | 0.00 | 0.00 | 0.00 | 87 | 1012.4 |
| 20260901070040 | 77 | 217 | 0.0 | 0.0 | 0.00 | 0.00 | 0.00 | 86 | 1012.4 |
| 20260901064541 | 78 | 217 | 0.0 | 0.0 | 0.00 | 0.00 | 0.00 | 86 | 1012.5 |
| 20260901063040 | 78 | 217 | 0.0 | 0.0 | 0.00 | 0.00 | 0.00 | 86 | 1012.6 |
| 20260901061548 | 78 | 216 | 0.0 | 6.0 | 0.00 | 0.00 | 0.00 | 86 | 1012.7 |
| 20260901060043 | 78 | 234 | 0.0 | 3.0 | 0.00 | 0.00 | 0.00 | 85 | 1012.8 |
| 20260901054536 | 78 | 234 | 0.0 | 0.0 | 0.00 | 0.00 | 0.00 | 85 | 1012.9 |
| 20260901053044 | 78 | 229 | 0.0 | 0.0 | 0.00 | 0.00 | 0.00 | 85 | 1012.8 |
| 20260901051539 | 78 | 213 | 0.0 | 0.0 | 0.00 | 0.00 | 0.00 | 85 | 1012.8 |
| 20260901050033 | 78 | 212 | 0.0 | 0.0 | 0.00 | 0.00 | 0.00 | 85 | 1012.9 |
| 20260901044534 | 77 | 212 | 0.0 | 3.0 | 0.00 | 0.00 | 0.00 | 85 | 1012.7 |
| 20260901043032 | 77 | 219 | 0.0 | 0.0 | 0.00 | 0.00 | 0.00 | 86 | 1012.7 |
| 20260901041527 | 76 | 219 | 0.0 | 0.0 | 0.00 | 0.00 | 0.00 | 87 | 1012.8 |
| 20260901040027 | 75 | 219 | 0.0 | 0.0 | 0.00 | 0.00 | 0.00 | 87 | 1013.0 |
| 20260901034530 | 75 | 219 | 0.0 | 0.0 | 0.00 | 0.00 | 0.00 | 86 | 1012.9 |
| 20260901033023 | 75 | 219 | 0.0 | 0.0 | 0.00 | 0.00 | 0.00 | 86 | 1013.1 |
| 20260901031542 | 75 | 219 | 0.0 | 0.0 | 0.00 | 0.00 | 0.00 | 85 | 1013.2 |
| 20260901030024 | 75 | 219 | 0.0 | 0.0 | 0.00 | 0.00 | 0.00 | 84 | 1012.9 |
| 20260901024526 | 75 | 219 | 0.0 | 0.0 | 0.00 | 0.00 | 0.00 | 84 | 1013.2 |
| 20260901023024 | 75 | 219 | 0.0 | 0.0 | 0.00 | 0.00 | 0.00 | 84 | 1013.2 |
| 20260901021520 | 75 | 219 | 0.0 | 0.0 | 0.00 | 0.00 | 0.00 | 85 | 1013.2 |
| 20260901020020 | 74 | 219 | 0.0 | 0.0 | 0.00 | 0.00 | 0.00 | 86 | 1013.1 |
| 20260901014519 | 74 | 219 | 0.0 | 0.0 | 0.00 | 0.00 | 0.00 | 86 | 1013.3 |
| 20260901013020 | 74 | 219 | 0.0 | 0.0 | 0.00 | 0.00 | 0.00 | 87 | 1013.3 |
| 20260901011518 | 74 | 219 | 0.0 | 4.0 | 0.00 | 0.00 | 0.00 | 88 | 1013.2 |
| 20260901010032 | 74 | 210 | 0.0 | 5.0 | 0.00 | 0.00 | 0.00 | 88 | 1012.8 |
| 20260901004517 | 74 | 235 | 0.0 | 5.0 | 0.00 | 0.00 | 0.00 | 87 | 1012.6 |
| 20260901003017 | 75 | 134 | 0.0 | 0.0 | 0.00 | 0.00 | 0.00 | 86 | 1012.8 |
| 20260901001519 | 76 | 217 | 0.0 | 0.0 | 0.00 | 0.00 | 0.00 | 85 | 1012.7 |
| 20260901000015 | 76 | 220 | 0.0 | 5.0 | 0.00 | 0.00 | 0.00 | 84 | 1013.0 |
| 20260831234513 | 77 | 219 | 0.0 | 5.0 | 0.00 | 0.00 | 0.00 | 85 | 1012.9 |
| 20260831233015 | 77 | 221 | 0.0 | 0.0 | 0.00 | 0.00 | 0.00 | 85 | 1013.2 |
| 20260831231513 | 77 | 239 | 0.0 | 7.0 | 0.00 | 0.00 | 0.00 | 84 | 1013.3 |
| 20260831230013 | 77 | 214 | 0.0 | 5.0 | 0.00 | 0.00 | 0.00 | 84 | 1013.4 |
| 20260831224510 | 77 | 221 | 0.0 | 0.0 | 0.00 | 0.00 | 0.00 | 85 | 1013.7 |
| 20260831223016 | 78 | 221 | 0.0 | 10.0 | 0.00 | 0.00 | 0.00 | 85 | 1013.6 |
| 20260831221522 | 79 | 206 | 0.0 | 9.0 | 0.00 | 0.00 | 0.00 | 83 | 1013.9 |
| 20260831220106 | 80 | 240 | 3.0 | 10.0 | 0.00 | 0.00 | 0.00 | 80 | 1014.0 |
| 20260831214505 | 81 | 222 | 0.0 | 6.0 | 0.00 | 0.00 | 0.00 | 76 | 1014.2 |
| 20260831213005 | 82 | 227 | 0.0 | 8.0 | 0.00 | 0.00 | 0.00 | 72 | 1014.2 |
| 20260831211503 | 83 | 248 | 5.0 | 10.0 | 0.00 | 0.00 | 0.00 | 73 | 1014.3 |
| 20260831210006 | 82 | 105 | 0.0 | 0.0 | 0.00 | 0.00 | 0.00 | 72 | 1014.7 |
| 20260831204503 | 83 | 126 | 0.0 | 0.0 | 0.00 | 0.00 | 0.00 | 71 | 1014.8 |
| 20260831203003 | 84 | 150 | 0.0 | 0.0 | 0.00 | 0.00 | 0.00 | 70 | 1014.6 |
| 20260831201602 | 84 | 155 | 0.0 | 3.0 | 0.00 | 0.00 | 0.00 | 70 | 1014.5 |